Маунт-Лагуна

США     32°56′02″N   116°28′55″W
темп.,
°C
ветер,
м/с
пор.,
м/с
влажн.,
%
обл.,
%
осадки,
мм/ч
давл.,
гПа
погр.,
м
16 октября, сб
сб1623:00+13в43180 0.0 101926
02:00+13в33170 0.0 101917
05:00+12в32190 0.0 101815
08:00+15в32200 0.0 101832
11:00+21всв45130 0.0 1017881
14:00+22в55130 0.0 10151002
17:00+21всв32150 0.0 1015843
20:00+15в11230 0.0 101611
17 октября, вс
вс1723:00+14зюз122113 0.0 101611
02:00+13зюз3223100 0.0 101613
05:00+13юз2224100 0.0 101512
08:00+15зюз332221 0.0 101633
11:00+20зюз44133 0.0 10151214
14:00+20зюз67190 0.0 10131351
17:00+17зюз56280 0.0 1013898
20:00+11зюз45520 0.0 101588
18 октября, пн
пн1823:00+9зюз55630 0.0 101686
02:00+8зюз55770 0.0 101594
05:00+7зюз55890 0.0 101588
08:00+8зюз568734 0.0 1014303
11:00+12зюз696848 0.0 1014698
14:00+13з6958100 0.0 1012930
17:00+11зюз686414 0.0 1012589
20:00+8зюз568324 0.0 1014312
19 октября, вт
вт1923:00+6зюз459122 0.0 1016139
02:00+5зюз448523 0.0 101664
05:00+5зюз32630 0.0 101521
08:00+10юз11320 0.0 101531
11:00+17всв22231 0.0 1015864
14:00+19св22230 0.0 10131297
17:00+18с112837 0.0 1013722
20:00+11з1149100 0.0 101612
20 октября, ср
ср2023:00+11юз115061 0.0 101611
02:00+11юв014189 0.0 101610
05:00+10ююв0141100 0.0 101710
08:00+13вюв11396 0.0 101818
11:00+19всв22244 0.0 1018783
14:00+22св22215 0.0 10161430
17:00+20св1126100 0.0 1016739
20:00+14вюв1140100 0.0 101811